Location: Edinburgh
(55.9500°N, 3.1600°W)
Time: 11:27:25
(UTC+01:00)

Envisat - Pass Details

Date: 25 February 2019
Orbit: 764 x 766 km, 98.1° (Epoch: 14 October)

Event Time Altitude Azimuth Distance (km) Brightness Sun altitude
Rises 19:07:29 0° 180° (S) 3,221 6.2 -13.3°
Reaches altitude 10° 19:09:51 10° 185° (S) 2,299 5.5 -13.6°
Maximum altitude 19:14:46 49° 261° (W) 981 4.0 -14.3°
Drops below altitude 10° 19:19:43 10° 336° (NNW) 2,316 5.9 -15.0°
Sets 19:22:07 0° 342° (NNW) 3,247 6.6 -15.3°
